Overview Statistics Trail Chart Weather Telemetry Raw packets
 

This is the latest recevied weather packets stored in our database for station/object DL7KAW-10. If no packets are shown the sender has not sent any weather packets the latest 10 day(s).

<< 7 8 9 10 11 12 13 >>
Time Temp. Humidity Pressure Rain* Wind** Luminosity Snow
1788518234 19.44° C 84% 1005.8 hPa - - - -
1788517334 19.44° C 86% 1006.4 hPa - - - -
1788516434 19.44° C 82% 1007.1 hPa - - - -
1788515534 20° C 73% 1007.6 hPa - - - -
1788514633 19.44° C 72% 1007.9 hPa - - - -
1788513733 19.44° C 71% 1008.3 hPa - - - -
1788512833 19.44° C 73% 1008.6 hPa - - - -
1788511933 20° C 72% 1008.7 hPa - - - -
1788511033 20° C 71% 1008.9 hPa - - - -
1788510133 19.44° C 71% 1009.3 hPa - - - -
1788509233 19.44° C 72% 1009.4 hPa - - - -
1788508333 19.44° C 72% 1010 hPa - - - -
1788507432 19.44° C 72% 1009.9 hPa - - - -
1788506532 19.44° C 71% 1010 hPa - - - -
1788505632 19.44° C 71% 1010.2 hPa - - - -
1788504732 19.44° C 71% 1010.5 hPa - - - -
1788503832 20° C 72% 1010.6 hPa - - - -
1788502932 19.44° C 72% 1010.7 hPa - - - -
1788502032 20° C 70% 1010.8 hPa - - - -
1788501132 19.44° C 71% 1010.9 hPa - - - -
1788500231 19.44° C 72% 1011 hPa - - - -
1788499331 19.44° C 72% 1011.4 hPa - - - -
1788498431 19.44° C 70% 1011.8 hPa - - - -
1788497531 20° C 71% 1011.7 hPa - - - -
1788496631 20° C 71% 1011.6 hPa - - - -

* Rain since midnight (hover to see other rain measurements)
** Current wind speed in m/s (hover to see current wind gust speed)